Starlink 4537

operational
NORAD ID: 53407 Int'l Des: 2022-097 Owner: SPXS Country: US Constellation: starlink
LEOCIRCULAR

Über Starlink 4537

Beschreibung wird geladen...

Live-Position

3D-Globus wird geladen...

Nächste Überflüge

Höhenverlauf

Altitude vs Time

uPlot chart will show altitude changes over time

Zweizeiliger Elementsatz

1 53407U 22097V 25298.46809666 .01069970 00000-0 30372-2 0 9999
2 53407 53.2069 335.9743 0001658 87.6576 272.4641 15.90351881178596
Epoch: 25. Okt. 2025 • Age: 111 hours

Aktueller Status

Höhe 276.5 km
Geschwindigkeit 7.74 km/s
Subsatellitenpunkt -25.16°S, 141.9°W
Startdatum 10. Aug. 2022
Alter 3.2 years
Typ internet

Technische Details

Klassifizierung Payload
Masse 297.00 kg
Trockenmasse 275.00 kg
Gesamtmasse 297.00 kg
Länge 0.20 m
Durchmesser 2.80 m
Spannweite 9.00 m
Form Box + pan
Hersteller SPXS
Bus-Typ Starlink
Phasenstatus In Orbit
Besitzer/Staat SPXS/US

Große Konstellationen

Loading constellations...